Location: Marquette
(46.5440°N, 87.3950°W)
Time: 06:38:53
(UTC-04:00)

Daily predictions for brighter satellites

Satellite Brightness Start Highest point End
(mag) Time Altitude Azimuth Time Altitude Azimuth Time Altitude Azimuth
Cosmos 1943 3.5 22:08:22 10° S 22:13:42 45° ESE 22:19:07 10° NE
GRACE-1 4.0 22:13:16 10° N 22:16:09 85° W 22:19:00 10° S
GRACE-2 4.0 22:13:42 10° N 22:16:35 84° W 22:19:26 10° S
Cosmos 1953 4.4 22:15:25 10° NE 22:17:29 14° ENE 22:19:31 10° E
Lacrosse 5 rocket 3.8 22:14:37 10° WNW 22:17:53 24° NNW 22:21:18 10° NE
Cosmos 1939 Rocket 3.1 22:15:34 10° S 22:19:43 76° WSW 22:23:52 10° NNW
Cosmos 1346 Rocket 3.3 22:27:51 10° SSE 22:31:29 38° E 22:35:10 10° NNE
Cosmos 1992 Rocket 4.3 22:26:43 10° NNW 22:31:55 68° WSW 22:37:05 10° S
SeaSat 1 2.5 22:35:39 10° SSE 22:40:33 87° WSW 22:45:33 10° NNW
USA 81 4.1 22:36:20 10° N 22:41:40 82° E 22:46:57 10° S
ARGOS 3.5 22:36:49 11° SE 22:41:55 55° ENE 22:47:14 10° N
COSMOS 2455 3.2 22:37:54 10° SW 22:43:54 73° NW 22:49:58 10° NNE
Cosmos 1758 Rocket 3.9 22:40:42 10° SSE 22:44:52 46° E 22:49:02 10° NNE
ISS -3.0 22:46:58 10° WSW 22:50:13 68° NNW 22:53:30 10° ENE
MetOp-B 4.3 22:45:43 10° S 22:51:04 77° WSW 22:56:28 10° NNW
CZ-4B R/B 3.5 22:48:01 10° NNE 22:53:08 70° ESE 22:58:20 10° S
Cosmos 2369 Rocket 2.7 22:48:18 10° NNW 22:53:52 58° WSW 22:59:14 11° S
Cosmos 1766 3.3 22:56:00 10° N 23:00:00 69° E 23:03:02 17° SSE
Cosmos 1190 Rocket 4.1 22:55:12 10° SSW 23:00:31 90° WNW 23:05:53 10° NNE
Cosmos 1825 Rocket 3.8 22:56:27 10° SSW 23:00:53 73° W 23:05:19 10° N
Landsat 7 4.2 22:58:24 16° SE 23:01:58 50° ENE 23:06:35 10° N
CZ-4 R/B 4.0 22:59:22 10° NNE 23:04:20 62° ESE 23:09:19 10° S
Cosmos 1758 4.1 23:01:54 10° N 23:05:49 39° ENE 23:08:15 20° SE
PSLV R/B 4.3 23:03:38 10° WSW 23:06:49 31° S 23:08:17 22° SE
H-2A R/B 2.5 23:04:51 17° SE 23:08:25 46° ENE 23:13:19 10° N
DELTA 2 DEB (DPAF) 4.2 23:05:25 18° SSE 23:08:45 68° ENE 23:13:15 10° N
YAOGAN 6 3.2 23:06:29 13° S 23:09:44 56° W 23:13:26 10° NNW
ATLAS 3B R/B 2.9 23:02:30 10° SSW 23:10:13 84° SE 23:17:44 10° NE
NOAA 11 4.2 23:05:44 15° SSE 23:10:18 86° ENE 23:15:45 10° NNW
Cosmos 1140 Rocket 4.2 23:07:18 16° SSE 23:10:48 35° ESE 23:15:33 10° NE
IGS 5A 4.2 23:12:42 20° SE 23:15:09 40° ENE 23:19:03 10° N
SPOT 5 4.2 23:12:43 10° SSW 23:16:33 29° W 23:20:22 10° NW
SPOT 1/Viking Rocket 3.9 23:12:56 13° S 23:17:34 62° WSW 23:22:41 10° NNW
Terra 2.2 23:14:42 20° SE 23:17:47 51° ENE 23:22:24 10° N
Cosmos 676 Rocket 4.0 23:12:29 10° SSW 23:17:49 79° ESE 23:23:09 10° NNE
Lacrosse 4 Rocket 1.8 23:17:31 10° SW 23:21:32 63° WNW 23:25:39 10° NNE
Cosmos 2084 3.4 23:18:00 10° NW 23:22:07 78° SW 23:24:37 24° SSE
Cosmos 1544 4.5 23:19:09 10° NNE 23:22:24 27° ENE 23:23:55 21° ESE
SAR-Lupe-2 3.7 23:23:38 27° SE 23:25:25 61° ENE 23:28:59 10° N
Cosmos 1470 4.2 23:23:10 10° NNE 23:26:24 24° ENE 23:27:56 19° ESE
USA 234 3.3 23:21:49 19° SE 23:26:46 71° SW 23:33:22 10° NW
Cosmos 1805 3.4 23:24:07 10° N 23:28:02 59° ENE 23:29:59 27° SSE
Lacrosse 5 3.8 23:24:33 10° NW 23:28:52 27° N 23:33:10 10° ENE
BREEZE-M DEB (TANK) 1.6 23:27:15 10° WSW 23:29:49 76° NNW 23:31:53 10° ENE
COSMOS 2406 3.3 23:33:42 16° S 23:38:10 56° ESE 23:43:47 10° NE
Nadezhda 4 Rocket 4.1 23:34:52 20° SSE 23:39:14 61° E 23:45:28 10° NNE
CZ-4C R/B 3.9 23:38:41 21° S 23:41:16 54° W 23:45:10 10° NNW
DMSP B5D2-2 4.2 23:37:04 10° NNE 23:42:18 57° E 23:45:23 24° S
Atlas Centaur 2 4.1 23:38:45 10° SW 23:44:14 21° S 23:46:02 20° S
Cosmos 407 Rocket 4.4 23:40:20 10° SW 23:45:25 49° WNW 23:50:29 10° NNE
Cosmos 2221 4.0 23:42:26 10° NNE 23:46:02 25° ENE 23:47:39 20° ESE
Cosmos 1943 Rocket 2.6 23:41:36 10° NW 23:47:01 54° WSW 23:50:26 22° S
SL-8 R/B 3.7 23:42:17 10° WNW 23:47:07 68° SSW 23:49:39 27° SE
SL-27 R/B 2.5 23:45:17 21° SSW 23:47:23 72° WNW 23:50:44 10° NNE
Cosmos-2242 3.5 23:44:36 10° NNW 23:48:57 56° W 23:51:35 22° SSW
Cosmos 1953 2.8 23:50:25 10° NNW 23:54:20 55° W 23:56:18 26° SSW
COSMOS 2487 3.1 23:54:06 36° ESE 23:54:26 37° ESE 23:57:48 10° NE
